Retour au catalogue

COSMOS 1823 DEB

ActifLEO
NORAD 26111·DEBRIS·🇷🇺 Russia

Lancé Feb 20, 1987 depuis Plesetsk Cosmodrome

Loading…

Prochains Passages (prochaines 24 heures)

TLE

FraisSource: Space-Track

Époque: Sep 14, 2026, 10:28 UTC

1 26111U 87020DS  26257.43661314  .00000045  00000-0  44939-3 0  9999
2 26111  73.5977 260.6668 0029839  96.8991  56.5797 12.42974807793606

Suivez COSMOS 1823 DEB en temps réel avec AllMySat

Download on the App Store